Location: Gu�tanj
(46.5431°N, 14.9692°E)
Time: 00:47:48
(UTC+00:00)

X-37B - Pass Details

Date: 08 December 2022
Orbit: 277 x 277 km, 45.0° (Epoch: 01 November)

Event Time Altitude Azimuth Distance (km) Brightness Sun altitude
Rises 17:31:00 0° 240° (WSW) 1,909 5.3 -22.8°
Reaches altitude 10° 17:33:00 10° 230° (SW) 1,099 3.7 -23.2°
Enters shadow 17:33:21 13° 227° (SW) 962 3.3 -23.2°
